• In Czech Republic
  • List of Countries
  • For 7 days
  • Water Temperature
  • Satellite Maps
  • Weather Map
  • Weather Widgets
  • user-avatar
    Login

    Hourly Weather Alcala de Henares

    Today, 18 July, Wednesday

    Time Temperature Precipitation Wind Pressure Humidity
    00:00 +26°C° 0 mm 5 mps 709 mmHg 37%
    01:00 +25°C° 0 mm 4 mps 709 mmHg 39%
    02:00 +25°C° 0 mm 4 mps 709 mmHg 41%
    03:00 +23°C° 0 mm 4 mps 709 mmHg 43%
    04:00 +24°C° 0 mm 3 mps 709 mmHg 44%
    05:00 +24°C° 0 mm 3 mps 709 mmHg 45%
    06:00 +24°C° 0 mm 2 mps 710 mmHg 48%
    07:00 +25°C° 0 mm 3 mps 710 mmHg 42%
    08:00 +27°C° 0 mm 3 mps 710 mmHg 36%
    09:00 +29°C° 0 mm 3 mps 710 mmHg 30%
    10:00 +30°C° 0 mm 4 mps 710 mmHg 27%
    11:00 +33°C° 0 mm 5 mps 710 mmHg 24%
    12:00 +34°C° 0 mm 4 mps 711 mmHg 22%
    13:00 +34°C° 0 mm 5 mps 710 mmHg 20%
    14:00 +35°C° 0 mm 5 mps 710 mmHg 19%
    15:00 +35°C° 0 mm 5 mps 710 mmHg 17%
    16:00 +35°C° 0 mm 5 mps 710 mmHg 17%
    17:00 +35°C° 0 mm 4 mps 710 mmHg 17%
    18:00 +34°C° 0 mm 4 mps 710 mmHg 18%
    19:00 +33°C° 0 mm 4 mps 710 mmHg 20%
    20:00 +30°C° 0 mm 3 mps 710 mmHg 21%
    21:00 +28°C° 0 mm 3 mps 710 mmHg 23%
    22:00 +27°C° 0 mm 2 mps 710 mmHg 25%
    23:00 +26°C° 0 mm 2 mps 710 mmHg 26%

    Tomorrow, 19 July, Thursday

    Time Temperature Precipitation Wind Pressure Humidity
    00:00 +25°C° 0 mm 1 mps 710 mmHg 28%
    01:00 +25°C° 0 mm 1 mps 710 mmHg 29%
    02:00 +24°C° 0 mm 1 mps 710 mmHg 30%
    03:00 +24°C° 0 mm 1 mps 710 mmHg 32%
    04:00 +23°C° 0 mm 1 mps 710 mmHg 33%
    05:00 +23°C° 0 mm 1 mps 710 mmHg 34%
    06:00 +23°C° 0 mm 1 mps 710 mmHg 35%
    07:00 +25°C° 0 mm 2 mps 711 mmHg 32%
    08:00 +27°C° 0 mm 3 mps 711 mmHg 29%
    09:00 +29°C° 0 mm 3 mps 711 mmHg 26%
    10:00 +30°C° 0 mm 4 mps 711 mmHg 23%
    11:00 +32°C° 0 mm 4 mps 711 mmHg 20%
    12:00 +34°C° 0 mm 5 mps 711 mmHg 17%
    13:00 +34°C° 0 mm 5 mps 710 mmHg 16%
    14:00 +35°C° 0 mm 5 mps 710 mmHg 15%
    15:00 +36°C° 0 mm 5 mps 710 mmHg 13%
    16:00 +35°C° 0 mm 5 mps 710 mmHg 14%
    17:00 +35°C° 0 mm 5 mps 709 mmHg 14%
    18:00 +35°C° 0 mm 5 mps 709 mmHg 14%
    19:00 +33°C° 0 mm 4 mps 710 mmHg 16%
    20:00 +30°C° 0 mm 4 mps 710 mmHg 17%
    21:00 +28°C° 0 mm 3 mps 710 mmHg 19%
    22:00 +27°C° 0 mm 3 mps 710 mmHg 20%
    23:00 +26°C° 0 mm 2 mps 710 mmHg 22%

    Day after tomorrow, 20 July, Friday

    Time Temperature Precipitation Wind Pressure Humidity
    00:00 +25°C° 0 mm 2 mps 710 mmHg 23%
    01:00 +24°C° 0 mm 2 mps 710 mmHg 26%
    02:00 +24°C° 0 mm 1 mps 710 mmHg 29%
    03:00 +23°C° 0 mm 1 mps 710 mmHg 31%
    04:00 +23°C° 0 mm 1 mps 710 mmHg 34%
    05:00 +23°C° 0 mm 1 mps 710 mmHg 36%
    06:00 +22°C° 0 mm 1 mps 710 mmHg 39%
    07:00 +24°C° 0 mm 1 mps 710 mmHg 34%
    08:00 +26°C° 0 mm 2 mps 710 mmHg 30%
    09:00 +28°C° 0 mm 2 mps 710 mmHg 26%
    10:00 +30°C° 0 mm 3 mps 710 mmHg 24%
    11:00 +31°C° 0 mm 3 mps 710 mmHg 22%
    12:00 +33°C° 0 mm 4 mps 710 mmHg 20%
    13:00 +34°C° 0 mm 4 mps 710 mmHg 20%
    14:00 +34°C° 0 mm 4 mps 710 mmHg 20%
    15:00 +34°C° 0 mm 5 mps 709 mmHg 19%
    16:00 +34°C° 0 mm 5 mps 709 mmHg 21%
    17:00 +33°C° 0 mm 5 mps 709 mmHg 23%
    18:00 +33°C° 0 mm 5 mps 709 mmHg 25%
    19:00 +30°C° 0.1 mm 4 mps 710 mmHg 32%
    20:00 +28°C° 0.1 mm 4 mps 710 mmHg 39%
    21:00 +26°C° 0.1 mm 4 mps 711 mmHg 46%
    22:00 +25°C° 0 mm 4 mps 710 mmHg 52%
    23:00 +23°C° 0 mm 4 mps 710 mmHg 58%

    21 July, Saturday

    Time Temperature Precipitation Wind Pressure Humidity
    00:00 +22°C° 0 mm 4 mps 710 mmHg 63%
    01:00 +21°C° 0 mm 4 mps 710 mmHg 65%
    02:00 +21°C° 0 mm 4 mps 710 mmHg 66%
    03:00 +20°C° 0 mm 3 mps 710 mmHg 68%
    04:00 +20°C° 0 mm 3 mps 710 mmHg 68%
    05:00 +20°C° 0 mm 3 mps 710 mmHg 68%
    06:00 +20°C° 0 mm 3 mps 710 mmHg 68%
    07:00 +22°C° 0 mm 3 mps 711 mmHg 60%
    08:00 +24°C° 0 mm 3 mps 711 mmHg 51%
    09:00 +26°C° 0 mm 3 mps 711 mmHg 43%
    10:00 +28°C° 0 mm 2 mps 711 mmHg 39%
    11:00 +29°C° 0 mm 2 mps 711 mmHg 35%
    12:00 +30°C° 0 mm 2 mps 711 mmHg 30%
    13:00 +31°C° 0 mm 2 mps 711 mmHg 28%
    14:00 +32°C° 0 mm 2 mps 710 mmHg 26%
    15:00 +32°C° 0 mm 2 mps 710 mmHg 24%
    16:00 +33°C° 0 mm 3 mps 710 mmHg 24%
    17:00 +33°C° 0 mm 3 mps 710 mmHg 24%
    18:00 +33°C° 0 mm 3 mps 710 mmHg 24%
    19:00 +30°C° 0 mm 3 mps 710 mmHg 27%
    20:00 +29°C° 0 mm 4 mps 711 mmHg 31%
    21:00 +27°C° 0 mm 4 mps 711 mmHg 34%
    22:00 +26°C° 0 mm 4 mps 711 mmHg 40%
    23:00 +25°C° 0 mm 4 mps 711 mmHg 46%

    22 July, Sunday

    Time Temperature Precipitation Wind Pressure Humidity
    00:00 +22°C° 0 mm 4 mps 711 mmHg 53%
    01:00 +22°C° 0 mm 4 mps 711 mmHg 55%
    02:00 +21°C° 0 mm 4 mps 711 mmHg 58%
    03:00 +20°C° 0 mm 3 mps 711 mmHg 60%
    04:00 +20°C° 0 mm 3 mps 711 mmHg 60%
    05:00 +20°C° 0 mm 3 mps 711 mmHg 61%
    06:00 +20°C° 0 mm 3 mps 711 mmHg 61%
    07:00 +22°C° 0 mm 3 mps 711 mmHg 53%
    08:00 +25°C° 0 mm 3 mps 712 mmHg 45%
    09:00 +27°C° 0 mm 2 mps 712 mmHg 36%
    10:00 +29°C° 0 mm 2 mps 712 mmHg 31%
    11:00 +30°C° 0 mm 2 mps 712 mmHg 26%
    12:00 +32°C° 0 mm 1 mps 712 mmHg 22%
    13:00 +33°C° 0 mm 1 mps 711 mmHg 20%
    14:00 +34°C° 0 mm 1 mps 711 mmHg 18%
    15:00 +35°C° 0 mm 2 mps 711 mmHg 16%
    16:00 +35°C° 0 mm 2 mps 711 mmHg 16%
    17:00 +34°C° 0 mm 1 mps 711 mmHg 16%
    18:00 +34°C° 0 mm 1 mps 711 mmHg 16%
    19:00 +32°C° 0 mm 2 mps 711 mmHg 19%
    20:00 +30°C° 0 mm 2 mps 711 mmHg 21%
    21:00 +29°C° 0 mm 2 mps 711 mmHg 23%
    22:00 +28°C° 0 mm 3 mps 711 mmHg 28%
    23:00 +27°C° 0 mm 3 mps 711 mmHg 32%

    23 July, Monday

    Time Temperature Precipitation Wind Pressure Humidity
    00:00 +26°C° 0 mm 3 mps 711 mmHg 36%
    01:00 +25°C° 0 mm 3 mps 711 mmHg 43%
    02:00 +24°C° 0 mm 3 mps 710 mmHg 50%
    03:00 +22°C° 0 mm 3 mps 710 mmHg 57%
    04:00 +22°C° 0 mm 3 mps 710 mmHg 58%
    05:00 +22°C° 0 mm 3 mps 710 mmHg 59%
    06:00 +23°C° 0 mm 2 mps 710 mmHg 60%
    07:00 +26°C° 0 mm 2 mps 710 mmHg 53%
    08:00 +28°C° 0 mm 2 mps 710 mmHg 47%
    09:00 +30°C° 0 mm 2 mps 710 mmHg 40%
    10:00 +31°C° 0 mm 2 mps 710 mmHg 34%
    11:00 +34°C° 0 mm 3 mps 710 mmHg 28%
    12:00 +36°C° 0 mm 3 mps 710 mmHg 22%
    13:00 +37°C° 0 mm 3 mps 709 mmHg 20%
    14:00 +37°C° 0 mm 3 mps 709 mmHg 17%
    15:00 +38°C° 0 mm 3 mps 709 mmHg 15%
    16:00 +38°C° 0 mm 3 mps 709 mmHg 15%
    17:00 +37°C° 0 mm 3 mps 708 mmHg 15%
    18:00 +37°C° 0 mm 3 mps 708 mmHg 15%
    19:00 +35°C° 0 mm 3 mps 708 mmHg 17%
    20:00 +34°C° 0 mm 3 mps 709 mmHg 19%
    21:00 +31°C° 0 mm 2 mps 709 mmHg 21%
    22:00 +30°C° 0 mm 2 mps 709 mmHg 25%
    23:00 +28°C° 0 mm 2 mps 709 mmHg 29%
    Show more